SCP
0 0 0 0 0 0 0 0 0 0 0 0 0 0 0 0 0 0 0 0 0 0 0 0 0 0 0 0 0 0 0 0 0 0 0 0 0 0 0 0 0 0 0 0
0 0 0 0 0 0 0 0 0 0 0 0 0 0 0 0 0 0 0 0 0 0 0 0 0 0 0 0 0 0 0 0 0 0 0 0 0 0 0 0 0 0 0 0
0 0 0 0 0 0 0 0 0 0 0 0 0 0 0 0 0 0 0 0 0 0 0 0 0 0 0 0 0 0 0 0 0 0 0 0 0 0 0 0 0 0 0 0
0 0 0 0 0 0 0 0 0 0 0 0 0 0 0 0 0 0 0 0 0 0 0 0 0 0 0 0 0 0 0 0 0 0 0 0 0 0 0 0 0 0 0 0
0 0 0 0 0 0 0 0 0 0 0 0 0 0 0 0 0 0 0 0 0 0 0 0 0 0 0 0 0 0 0 0 0 0 0 0 0 0 0 0 0 0 0 0
0 0 0 0 0 0 0 0 0 0 0 0 0 0 0 0 0 0 0 0 0 0 0 0 0 0 0 0 0 0 0 0 0 0 0 0 0 0 0 0 0 0 0 0
0 0 0 0 0 0 0 0 0 0 0 0 0 0 0 0 0 0 0 0 0 0 0 0 0 0 0 0 0 0 0 0 0 0 0 0 0 0 0 0 0 0 0 0
0 0 0 0 0 0 0 0 0 0 0 0 0 0 0 0 0 0 0 0 0 0 0 0 0 0 0 0 0 0 0 0 0 0 0 0 0 0 0 0 0 0 0 0
0 0 0 0 0 0 0 0 0 0 0 0 0 0 0 0 0 0 0 0 0 0 0 0 0 0 0 0 0 0 0 0 0 0 0 0 0 0 0 0 0 0 0 0
0 0 0 0 0 0 0 0 0 0 0 0 0 0 0 0 0 0 0 0 0 0 0 0 0 0 0 0 0 0 0 0 0 0 0 0 0 0 0 0 0 0 0 0
0 0 0 0 0 0 0 0 0 0 0 0 0 0 0 0 0 0 0 0 0 0 0 0 0 0 0 0 0 0 0 0 0 0 0 0 0 0 0 0 0 0 0 0
0 0 0 0 0 0 0 0 0 0 0 0 0 0 0 0 0 0 0 0 0 0 0 0 0 0 0 0 0 0 0 0 0 0 0 0 0 0 0 0 0 0 0 0
0 0 0 0 0 0 0 0 0 0 0 0 0 0 0 0 0 0 0 0 0 0 0 0 0 0 0 0 0 0 0 0 0 0 0 0 0 0 0 0 0 0 0 0
0 0 0 0 0 0 0 0 0 0 0 0 0 0 0 0 0 0 0 0 0 0 0 0 0 0 0 0 0 0 0 0 0 0 0 0 0 0 0 0 0 0 0 0
0 0 0 0 0 0 0 0 0 0 0 0 0 0 0 0 0 0 0 0 0 0 0 0 0 0 0 0 0 0 0 0 0 0 0 0 0 0 0 0 0 0 0 0
0 0 0 0 0 0 0 0 0 0 0 0 0 0 0 0 0 0 0 0 0 0 0 0 0 0 0 0 0 0 0 0 0 0 0 0 0 0 0 0 0 0 0 0
0 0 0 0 0 0 0 0 0 0 0 0 0 0 0 0 0 0 0 0 0 0 0 0 0 0 0 0 0 0 0 0 0 0 0 0 0 0 0 0 0 0 0 0
0 0 0 0 0 0 0 0 0 0 0 0 0 0 0 0 0 0 0 0 0 0 0 0 0 0 0 0 0 0 0 0 0 0 0 0 0 0 0 0 0 0 0 0
0 0 0 0 0 0 0 0 0 0 0 0 0 0 0 0 0 0 0 0 0 0 0 0 0 0 0 0 0 0 0 0 0 0 0 0 0 0 0 0 0 0 0 0
0 0 0 0 0 0 0 0 0 0 0 0 0 0 0 0 0 0 0 0 0 0 0 0 0 0 0 0 0 0 0 0 0 0 0 0 0 0 0 0 0 0 0 0
0 0 0 0 0 0 0 0 0 0 0 0 0 0 0 0 0 0 0 0 0 0 0 0 0 0 0 0 0 0 0 0 0 0 0 0 0 0 0 0 0 0 0 0
0 0 0 0 0 0 0 0 0 0 0 0 0 0 0 0 0 0 0 0 0 0 0 0 0 0 0 0 0 0 0 0 0 0 0 0 0 0 0 0 0 0 0 0
0 0 0 0 0 0 0 0 0 0 0 0 0 0 0 0 0 0 0 0 0 0 0 0 0 0 0 0 0 0 0 0 0 0 0 0 0 0 0 0 0 0 0 0
0 0 0 0 0 0 0 0 0 0 0 0 0 0 0 0 0 0 0 0 0 0 0 0 0 0 0 0 0 0 0 0 0 0 0 0 0 0 0 0 0 0 0 0
0 0 0 0 0 0 0 0 0 0 0 0 0 0 0 0 0 0 0 0 0 0 0 0 0 0 0 0 0 0 0 0 0 0 0 0 0 0 0 0 0 0 0 0
0 0 0 0 0 0 0 0 0 0 0 0 0 0 0 0 0 0 0 0 0 0 0 0 0 0 0 0 0 0 0 0 0 0 0 0 0 0 0 0 0 0 0 0
0 0 0 0 0 0 0 0 0 0 0 0 0 0 0 0 0 0 0 0 0 0 0 0 0 0 0 0 0 0 0 0 0 0 0 0 0 0 0 0 0 0 0 0
Wind_Speed
10 11 10 12 13 13 15 14 12 12 14 16 13 12 12 11 10 9 9 8 7 7 7 6 6 6 6 6 5 4 4 4 4 4 3 3 3 2 2 1 2 1 1 1
8 8 9 14 17 17 17 18 20 20 21 16 12 10 10 11 10 10 10 9 8 8 7 7 7 6 6 6 5 5 5 5 4 4 4 3 3 2 2 1 1 1 1 1
7 6 9 12 11 14 11 12 12 15 13 9 9 10 11 11 10 9 10 9 9 8 8 7 7 7 7 6 5 5 6 5 5 5 4 4 3 3 3 2 2 2 1 2
6 6 8 2 2 5 9 10 13 13 13 11 11 12 12 11 10 9 9 9 8 7 7 7 6 6 6 5 5 6 6 6 5 5 5 4 4 4 3 3 2 2 2 2
4 6 11 6 3 5 6 7 8 11 12 10 9 10 8 4 5 8 9 9 8 7 7 6 6 6 5 5 6 6 6 6 6 6 6 5 5 4 4 3 3 3 2 3
5 6 8 2 2 2 3 5 2 5 7 7 6 7 6 6 8 9 9 8 8 7 6 6 6 5 6 7 7 7 7 6 6 6 6 6 5 5 4 4 4 3 3 3
9 9 11 5 3 4 4 2 1 3 6 7 7 9 10 11 11 11 10 9 8 7 7 6 5 6 7 8 9 7 6 5 5 6 6 6 5 4 4 4 3 3 3 3
7 9 10 3 6 6 4 4 5 7 8 9 11 13 13 13 12 11 10 9 8 7 7 6 5 7 8 9 7 5 5 5 6 6 5 5 5 5 4 4 4 4 3 3
9 9 5 4 7 7 6 9 10 10 11 11 13 14 14 14 13 12 11 10 8 8 8 7 6 7 9 8 5 5 6 6 6 6 6 6 6 5 5 5 4 4 4 3
10 13 14 13 13 12 11 13 13 13 14 14 15 15 15 14 13 12 11 10 8 8 8 8 7 8 8 6 5 6 7 7 6 6 6 6 5 5 5 5 5 5 4 4
13 15 15 13 12 12 13 13 14 14 14 14 15 16 15 13 13 12 10 9 8 9 9 9 8 8 7 6 6 7 7 6 6 6 6 6 6 5 6 6 6 5 5 4
14 14 13 14 13 15 15 15 15 15 16 14 13 15 15 13 12 11 10 9 9 9 10 9 8 8 7 7 7 8 7 7 6 5 5 5 5 5 7 7 7 8 7 5
17 16 16 18 17 16 16 16 15 14 15 15 14 13 13 13 11 11 10 10 10 10 10 9 8 8 7 7 8 9 8 7 5 5 5 6 5 5 4 6 8 9 9 9
15 15 17 16 15 15 15 15 14 14 13 13 12 12 11 11 11 11 11 10 9 9 9 9 9 9 8 7 8 9 8 7 7 6 6 6 6 5 5 5 4 4 7 10
14 13 14 15 15 13 12 11 12 12 12 11 10 10 10 11 11 11 10 9 8 9 9 9 9 9 7 7 8 9 7 6 6 6 5 5 5 5 5 6 5 4 3 5
11 11 11 12 13 13 12 11 12 12 12 12 11 11 11 11 11 11 10 8 8 9 9 8 9 8 6 7 8 7 7 8 7 5 5 5 5 5 5 6 5 5 5 5
11 10 10 11 12 12 11 11 11 12 12 12 12 11 10 10 10 10 9 8 9 10 9 9 9 7 6 7 8 6 6 6 9 6 6 6 6 6 6 6 6 6 5 6
9 10 10 11 11 12 12 11 10 11 11 11 10 10 9 9 10 10 9 8 8 9 9 8 7 6 7 8 7 6 5 5 6 6 6 6 6 6 6 6 6 6 5 5
7 8 9 10 10 10 10 11 11 10 10 9 9 9 10 10 10 10 8 8 9 10 8 6 7 7 7 8 7 6 6 6 6 6 6 7 7 6 6 6 6 6 5 5
7 8 9 10 9 9 10 10 10 10 9 8 9 9 10 10 9 8 8 8 8 7 6 5 5 6 6 7 8 6 6 7 7 6 6 6 6 6 6 6 6 6 6 6
9 9 10 9 10 10 10 10 10 10 10 8 8 9 10 10 8 7 7 8 8 6 6 7 5 5 5 5 8 6 6 7 7 7 6 6 6 6 6 6 6 6 6 6
9 9 10 10 10 11 10 9 9 10 10 9 9 9 9 9 8 7 8 8 7 6 5 5 5 5 6 6 5 6 7 7 6 6 6 6 6 6 6 6 6 6 6 6
9 10 11 11 11 12 12 11 10 10 10 10 9 9 9 8 7 7 8 5 5 6 5 5 6 7 8 6 5 6 7 7 7 6 6 6 6 6 6 6 6 6 6 6
11 11 11 11 10 11 12 12 10 8 10 10 9 9 8 7 7 6 6 7 7 8 6 7 9 9 8 5 5 6 6 6 6 6 6 6 5 5 5 5 5 5 5 6
12 11 11 10 11 10 11 10 10 10 10 8 9 9 7 6 7 7 6 6 8 8 6 7 8 9 6 5 5 6 6 6 6 5 6 5 5 5 5 5 5 5 5 5
12 11 11 11 10 10 9 8 8 8 8 8 8 7 6 5 6 6 6 6 8 8 6 5 5 6 5 5 5 6 5 5 6 6 6 5 6 5 5 5 6 5 5 5
11 11 9 10 9 9 8 8 9 9 8 8 9 7 6 6 6 6 6 6 5 5 5 4 4 4 4 4 5 5 5 4 5 5 5 5 5 5 5 6 5 4 4 5
Wind_Direction
266 272 266 260 253 233 225 231 245 258 266 277 289 292 293 291 289 287 282 275 267 261 258 251 247 245 244 244 240 236 239 242 246 252 256 259 261 267 278 287 288 285 295 303
272 260 262 264 254 243 241 240 246 261 273 279 288 287 284 284 286 286 283 276 270 263 257 251 245 242 239 238 234 228 232 237 240 242 243 245 249 251 251 258 269 277 287 295
279 296 290 265 246 222 218 221 228 242 252 277 288 290 295 295 289 286 287 285 277 268 259 252 246 238 235 234 229 227 231 232 230 232 237 239 237 237 239 242 242 249 263 276
289 302 256 260 114 203 223 240 230 245 264 276 287 299 296 284 280 290 296 290 282 275 267 258 247 238 235 229 225 227 230 230 227 225 229 230 230 233 237 235 232 236 244 258
262 278 280 283 221 198 220 264 232 239 261 279 297 296 284 285 287 293 297 293 286 279 269 258 245 235 228 227 225 227 230 230 226 224 226 224 225 230 228 226 227 231 234 238
240 262 265 301 131 168 222 259 196 218 267 295 303 298 316 341 320 307 300 292 286 280 267 254 243 227 223 227 227 230 232 231 226 223 225 226 226 225 222 222 225 222 224 229
236 251 268 276 155 171 237 341 32 267 293 298 284 289 306 312 306 300 297 292 286 273 262 253 240 223 226 230 233 235 232 228 225 223 224 226 224 217 214 215 217 218 225 230
212 229 253 168 162 212 288 334 300 297 298 292 286 291 294 297 299 297 293 287 280 270 263 256 237 226 232 236 237 230 224 225 225 223 220 218 218 213 211 211 215 218 225 232
216 235 279 207 235 270 297 290 292 294 293 291 289 290 293 294 295 293 288 284 275 266 264 254 236 231 238 241 231 220 220 224 226 223 220 216 214 210 207 211 216 219 221 228
254 261 268 270 270 271 272 275 283 286 288 287 285 287 290 290 289 288 284 279 270 262 258 255 243 236 241 241 226 220 224 225 221 218 217 214 213 211 210 210 214 216 219 224
258 272 283 274 267 276 285 286 285 286 284 281 281 283 284 285 285 284 282 276 265 256 257 258 250 243 239 230 218 222 227 226 221 218 215 211 212 214 217 220 221 218 219 218
259 270 273 284 292 295 292 290 291 292 290 284 277 278 282 282 282 282 280 275 266 259 258 259 252 245 237 225 217 220 224 223 218 215 212 210 210 218 224 231 229 232 236 232
264 278 281 286 290 291 291 291 290 287 286 287 284 280 279 279 280 280 278 272 265 262 260 259 253 248 238 224 218 221 225 223 218 213 211 208 208 212 218 219 225 232 233 232
267 276 279 281 287 292 292 292 290 287 284 281 282 281 279 279 279 277 275 273 270 266 260 256 253 250 240 223 219 224 227 224 219 216 211 209 209 212 214 214 214 218 223 227
268 268 273 284 288 290 292 292 291 290 290 288 284 281 280 279 278 278 279 276 271 265 260 255 253 252 237 221 219 222 223 222 218 216 210 209 209 210 212 216 220 218 209 209
283 283 280 281 285 290 293 292 289 290 291 290 288 284 282 280 280 281 279 273 267 265 262 257 255 253 235 222 221 223 224 219 215 212 207 207 207 209 212 214 216 216 213 204
280 284 285 288 290 293 293 290 286 286 288 286 286 288 287 284 282 280 278 272 266 265 263 256 255 251 230 220 218 220 219 213 207 210 211 210 209 211 211 212 214 217 217 205
273 276 278 281 284 289 293 295 291 288 285 286 289 288 284 280 279 282 285 284 279 275 266 254 249 242 231 222 217 216 213 210 206 211 210 210 212 212 211 213 214 217 215 205
290 288 289 288 285 284 286 290 291 290 289 288 286 283 281 278 278 281 283 279 275 275 273 254 238 238 235 224 213 212 210 209 208 211 209 210 213 214 212 213 214 214 208 202
304 301 299 297 295 287 287 290 291 289 288 285 282 282 283 282 282 280 278 272 265 267 274 266 252 245 236 222 208 213 211 210 210 209 207 207 209 212 213 213 213 211 207 205
307 306 304 301 299 295 290 290 291 290 292 288 280 280 283 286 283 277 275 277 278 268 264 256 251 247 235 220 208 216 214 213 212 210 209 209 208 210 212 212 211 210 208 206
298 298 297 297 298 299 298 294 289 287 289 287 283 281 283 285 283 276 265 265 275 270 269 262 253 244 236 223 219 217 216 215 214 212 211 210 209 210 211 210 210 208 206 205
286 286 287 288 291 293 295 292 287 284 282 281 280 279 277 277 278 276 280 275 271 266 266 262 252 242 236 230 224 221 219 217 214 212 212 211 211 210 210 209 210 206 204 202
281 281 280 282 284 285 286 287 285 281 277 277 273 269 270 275 275 263 264 275 274 270 270 261 250 243 237 232 224 221 221 219 217 215 214 212 210 209 210 208 207 206 203 201
277 276 275 275 276 276 276 279 282 281 280 278 277 272 263 255 261 273 277 274 271 270 270 260 250 244 238 230 224 222 221 220 217 211 211 209 208 208 207 205 205 203 201 202
273 275 275 271 270 273 275 274 274 276 278 279 280 277 269 262 260 265 268 268 267 265 264 260 252 242 235 230 227 224 221 218 217 214 210 208 208 206 203 202 201 201 199 198
271 270 270 271 268 261 260 261 263 268 267 268 275 278 275 272 267 266 266 267 266 263 259 254 247 241 235 230 227 222 217 213 209 207 204 204 202 200 198 196 197 194 191 190